Year,Month,Day,Hour,Minute,Value (Times are PST for temperature in C)
2014,09,12,00,00,9.90
2014,09,12,00,01,10.00
2014,09,12,00,02,10.10
2014,09,12,00,03,10.20
2014,09,12,00,04,10.20
2014,09,12,00,05,10.30
2014,09,12,00,06,10.30
2014,09,12,00,07,10.30
2014,09,12,00,08,10.30
2014,09,12,00,09,10.20
2014,09,12,00,10,10.20
2014,09,12,00,11,10.20
2014,09,12,00,12,10.20
2014,09,12,00,13,10.10
2014,09,12,00,14,10.10
2014,09,12,00,15,10.00
2014,09,12,00,16,10.00
2014,09,12,00,17,10.00
2014,09,12,00,18,9.90
2014,09,12,00,19,9.90
2014,09,12,00,20,9.90
2014,09,12,00,21,9.80
2014,09,12,00,22,9.80
2014,09,12,00,23,9.70
2014,09,12,00,24,9.70
2014,09,12,00,25,9.70
2014,09,12,00,26,9.60
2014,09,12,00,27,9.60
2014,09,12,00,28,9.50
2014,09,12,00,29,9.50
2014,09,12,00,30,9.40
2014,09,12,00,31,9.40
2014,09,12,00,32,9.30
2014,09,12,00,33,9.30
2014,09,12,00,34,9.30
2014,09,12,00,35,9.30
2014,09,12,00,36,9.20
2014,09,12,00,37,9.30
2014,09,12,00,38,9.40
2014,09,12,00,39,9.50
2014,09,12,00,40,9.60
2014,09,12,00,41,9.60
2014,09,12,00,42,9.70
2014,09,12,00,43,9.70
2014,09,12,00,44,9.70
2014,09,12,00,45,9.80
2014,09,12,00,46,9.70
2014,09,12,00,47,9.70
2014,09,12,00,48,9.70
2014,09,12,00,49,9.70
2014,09,12,00,50,9.70
2014,09,12,00,51,9.70
2014,09,12,00,52,9.60
2014,09,12,00,53,9.60
2014,09,12,00,54,9.60
2014,09,12,00,55,9.50
2014,09,12,00,56,9.50
2014,09,12,00,57,9.40
2014,09,12,00,58,9.40
2014,09,12,00,59,9.40
2014,09,12,01,00,9.30
2014,09,12,01,01,9.30
2014,09,12,01,02,9.30
2014,09,12,01,03,9.20
2014,09,12,01,04,9.20
2014,09,12,01,05,9.20
2014,09,12,01,06,9.10
2014,09,12,01,07,9.10
2014,09,12,01,08,9.10
2014,09,12,01,09,9.10
2014,09,12,01,10,9.10
2014,09,12,01,11,9.10
2014,09,12,01,12,9.10
2014,09,12,01,13,9.10
2014,09,12,01,14,9.20
2014,09,12,01,15,9.20
2014,09,12,01,16,9.20
2014,09,12,01,17,9.20
2014,09,12,01,18,9.20
2014,09,12,01,19,9.30
2014,09,12,01,20,9.40
2014,09,12,01,21,9.40
2014,09,12,01,22,9.50
2014,09,12,01,23,9.60
2014,09,12,01,24,9.60
2014,09,12,01,25,9.70
2014,09,12,01,26,9.70
2014,09,12,01,27,9.80
2014,09,12,01,28,9.90
2014,09,12,01,29,9.90
2014,09,12,01,30,9.90
2014,09,12,01,31,9.90
2014,09,12,01,32,9.90
2014,09,12,01,33,9.90
2014,09,12,01,34,9.90
2014,09,12,01,35,9.80
2014,09,12,01,36,9.80
2014,09,12,01,37,9.80
2014,09,12,01,38,9.80
2014,09,12,01,39,9.70
2014,09,12,01,40,9.70
2014,09,12,01,41,9.70
2014,09,12,01,42,9.70
2014,09,12,01,43,9.70
2014,09,12,01,44,9.60
2014,09,12,01,45,9.60
2014,09,12,01,46,9.60
2014,09,12,01,47,9.60
2014,09,12,01,48,9.60
2014,09,12,01,49,9.60
2014,09,12,01,50,9.60
2014,09,12,01,51,9.60
2014,09,12,01,52,9.60
2014,09,12,01,53,9.60
2014,09,12,01,54,9.60
2014,09,12,01,55,9.50
2014,09,12,01,56,9.60
2014,09,12,01,57,9.50
2014,09,12,01,58,9.50
2014,09,12,01,59,9.50
2014,09,12,02,00,9.50
2014,09,12,02,01,9.50
2014,09,12,02,02,9.50
2014,09,12,02,03,9.50
2014,09,12,02,04,9.60
2014,09,12,02,05,9.70
2014,09,12,02,06,9.70
2014,09,12,02,07,9.70
2014,09,12,02,08,9.90
2014,09,12,02,09,9.90
2014,09,12,02,10,9.90
2014,09,12,02,11,10.00
2014,09,12,02,12,10.00
2014,09,12,02,13,10.10
2014,09,12,02,14,10.10
2014,09,12,02,15,10.10
2014,09,12,02,16,10.10
2014,09,12,02,17,10.10
2014,09,12,02,18,10.10
2014,09,12,02,19,10.10
2014,09,12,02,20,10.10
2014,09,12,02,21,10.20
2014,09,12,02,22,10.20
2014,09,12,02,23,10.40
2014,09,12,02,24,10.50
2014,09,12,02,25,10.60
2014,09,12,02,26,10.60
2014,09,12,02,27,10.70
2014,09,12,02,28,10.70
2014,09,12,02,29,10.80
2014,09,12,02,30,10.70
2014,09,12,02,31,10.70
2014,09,12,02,32,10.70
2014,09,12,02,33,10.60
2014,09,12,02,34,10.60
2014,09,12,02,35,10.50
2014,09,12,02,36,10.50
2014,09,12,02,37,10.40
2014,09,12,02,38,10.40
2014,09,12,02,39,10.30
2014,09,12,02,40,10.30
2014,09,12,02,41,10.20
2014,09,12,02,42,10.20
2014,09,12,02,43,10.10
2014,09,12,02,44,10.10
2014,09,12,02,45,10.00
2014,09,12,02,46,10.00
2014,09,12,02,47,9.90
2014,09,12,02,48,9.90
2014,09,12,02,49,9.90
2014,09,12,02,50,9.80
2014,09,12,02,51,9.80
2014,09,12,02,52,9.80
2014,09,12,02,53,9.70
2014,09,12,02,54,9.70
2014,09,12,02,55,9.70
2014,09,12,02,56,9.70
2014,09,12,02,57,9.70
2014,09,12,02,58,9.70
2014,09,12,02,59,9.70
2014,09,12,03,00,9.70
2014,09,12,03,01,9.70
2014,09,12,03,02,9.80
2014,09,12,03,03,9.80
2014,09,12,03,04,9.90
2014,09,12,03,05,10.00
2014,09,12,03,06,10.30
2014,09,12,03,07,10.70
2014,09,12,03,08,11.00
2014,09,12,03,09,11.30
2014,09,12,03,10,11.60
2014,09,12,03,11,11.80
2014,09,12,03,12,11.90
2014,09,12,03,13,12.10
2014,09,12,03,14,12.30
2014,09,12,03,15,12.40
2014,09,12,03,16,12.50
2014,09,12,03,17,12.60
2014,09,12,03,18,12.60
2014,09,12,03,19,12.70
2014,09,12,03,20,12.70
2014,09,12,03,21,12.70
2014,09,12,03,22,12.70
2014,09,12,03,23,12.70
2014,09,12,03,24,12.70
2014,09,12,03,25,12.70
2014,09,12,03,26,12.60
2014,09,12,03,27,12.60
2014,09,12,03,28,12.60
2014,09,12,03,29,12.60
2014,09,12,03,30,12.50
2014,09,12,03,31,12.50
2014,09,12,03,32,12.40
2014,09,12,03,33,12.40
2014,09,12,03,34,12.40
2014,09,12,03,35,12.40
2014,09,12,03,36,12.40
2014,09,12,03,37,12.40
2014,09,12,03,38,12.40
2014,09,12,03,39,12.40
2014,09,12,03,40,12.40
2014,09,12,03,41,12.40
2014,09,12,03,42,12.30
2014,09,12,03,43,12.30
2014,09,12,03,44,12.20
2014,09,12,03,45,12.20
2014,09,12,03,46,12.00
2014,09,12,03,47,11.90
2014,09,12,03,48,11.80
2014,09,12,03,49,11.80
2014,09,12,03,50,11.60
2014,09,12,03,51,11.60
2014,09,12,03,52,11.40
2014,09,12,03,53,11.30
2014,09,12,03,54,11.30
2014,09,12,03,55,11.20
2014,09,12,03,56,11.10
2014,09,12,03,57,11.00
2014,09,12,03,58,11.00
2014,09,12,03,59,10.90
2014,09,12,04,00,10.80
2014,09,12,04,01,10.80
2014,09,12,04,02,10.70
2014,09,12,04,03,10.60
2014,09,12,04,04,10.60
2014,09,12,04,05,10.50
2014,09,12,04,06,10.50
2014,09,12,04,07,10.40
2014,09,12,04,08,10.40
2014,09,12,04,09,10.30
2014,09,12,04,10,10.30
2014,09,12,04,11,10.30
2014,09,12,04,12,10.20
2014,09,12,04,13,10.20
2014,09,12,04,14,10.10
2014,09,12,04,15,10.10
2014,09,12,04,16,10.00
2014,09,12,04,17,10.00
2014,09,12,04,18,10.00
2014,09,12,04,19,10.00
2014,09,12,04,20,10.10
2014,09,12,04,21,10.30
2014,09,12,04,22,10.30
2014,09,12,04,23,10.40
2014,09,12,04,24,10.40
2014,09,12,04,25,10.40
2014,09,12,04,26,10.50
2014,09,12,04,27,10.60
2014,09,12,04,28,10.60
2014,09,12,04,29,10.60
2014,09,12,04,30,10.60
2014,09,12,04,31,10.60
2014,09,12,04,32,10.60
2014,09,12,04,33,10.60
2014,09,12,04,34,10.50
2014,09,12,04,35,10.40
2014,09,12,04,36,10.40
2014,09,12,04,37,10.40
2014,09,12,04,38,10.40
2014,09,12,04,39,10.40
2014,09,12,04,40,10.50
2014,09,12,04,41,10.50
2014,09,12,04,42,10.50
2014,09,12,04,43,10.60
2014,09,12,04,44,10.60
2014,09,12,04,45,10.60
2014,09,12,04,46,10.50
2014,09,12,04,47,10.40
2014,09,12,04,48,10.40
2014,09,12,04,49,10.30
2014,09,12,04,50,10.20
2014,09,12,04,51,10.30
2014,09,12,04,52,10.30
2014,09,12,04,53,10.30
2014,09,12,04,54,10.30
2014,09,12,04,55,10.20
2014,09,12,04,56,10.20
2014,09,12,04,57,10.20
2014,09,12,04,58,10.20
2014,09,12,04,59,10.20
2014,09,12,05,00,10.20
2014,09,12,05,01,10.20
2014,09,12,05,02,10.20
2014,09,12,05,03,10.20
2014,09,12,05,04,10.20
2014,09,12,05,05,10.30
2014,09,12,05,06,10.30
2014,09,12,05,07,10.40
2014,09,12,05,08,10.40
2014,09,12,05,09,10.40
2014,09,12,05,10,10.40
2014,09,12,05,11,10.50
2014,09,12,05,12,10.50
2014,09,12,05,13,10.50
2014,09,12,05,14,10.50
2014,09,12,05,15,10.50
2014,09,12,05,16,10.40
2014,09,12,05,17,10.30
2014,09,12,05,18,10.30
2014,09,12,05,19,10.30
2014,09,12,05,20,10.30
2014,09,12,05,21,10.30
2014,09,12,05,22,10.30
2014,09,12,05,23,10.30
2014,09,12,05,24,10.30
2014,09,12,05,25,10.30
2014,09,12,05,26,10.20
2014,09,12,05,27,10.30
2014,09,12,05,28,10.30
2014,09,12,05,29,10.30
2014,09,12,05,30,10.20
2014,09,12,05,31,10.10
2014,09,12,05,32,10.10
2014,09,12,05,33,10.00
2014,09,12,05,34,9.90
2014,09,12,05,35,9.90
2014,09,12,05,36,10.00
2014,09,12,05,37,10.10
2014,09,12,05,38,10.10
2014,09,12,05,39,10.20
2014,09,12,05,40,10.20
2014,09,12,05,41,10.30
2014,09,12,05,42,10.30
2014,09,12,05,43,10.30
2014,09,12,05,44,10.40
2014,09,12,05,45,10.50
2014,09,12,05,46,10.50
2014,09,12,05,47,10.60
2014,09,12,05,48,10.60
2014,09,12,05,49,10.60
2014,09,12,05,50,10.60
2014,09,12,05,51,10.70
2014,09,12,05,52,10.80
2014,09,12,05,53,10.80
2014,09,12,05,54,10.80
2014,09,12,05,55,10.80
2014,09,12,05,56,10.80
2014,09,12,05,57,10.90
2014,09,12,05,58,10.90
2014,09,12,05,59,11.00
2014,09,12,06,00,11.00
2014,09,12,06,01,11.10
2014,09,12,06,02,11.20
2014,09,12,06,03,11.30
2014,09,12,06,04,11.50
2014,09,12,06,05,11.70
2014,09,12,06,06,11.80
2014,09,12,06,07,12.00
2014,09,12,06,08,12.20
2014,09,12,06,09,12.40
2014,09,12,06,10,12.70
2014,09,12,06,11,12.90
2014,09,12,06,12,13.10
2014,09,12,06,13,13.20
2014,09,12,06,14,13.30
2014,09,12,06,15,13.40
2014,09,12,06,16,13.40
2014,09,12,06,17,13.50
2014,09,12,06,18,13.50
2014,09,12,06,19,13.50
2014,09,12,06,20,13.60
2014,09,12,06,21,13.60
2014,09,12,06,22,13.60
2014,09,12,06,23,13.60
2014,09,12,06,24,13.60
2014,09,12,06,25,13.60
2014,09,12,06,26,13.60
2014,09,12,06,27,13.60
2014,09,12,06,28,13.60
2014,09,12,06,29,13.60
2014,09,12,06,30,13.60
2014,09,12,06,31,13.60
2014,09,12,06,32,13.50
2014,09,12,06,33,13.50
2014,09,12,06,34,13.40
2014,09,12,06,35,13.40
2014,09,12,06,36,13.40
2014,09,12,06,37,13.40
2014,09,12,06,38,13.30
2014,09,12,06,39,13.30
2014,09,12,06,40,13.30
2014,09,12,06,41,13.30
2014,09,12,06,42,13.20
2014,09,12,06,43,13.20
2014,09,12,06,44,13.20
2014,09,12,06,45,13.20
2014,09,12,06,46,13.20
2014,09,12,06,47,13.20
2014,09,12,06,48,13.30
2014,09,12,06,49,13.30
2014,09,12,06,50,13.30
2014,09,12,06,51,13.30
2014,09,12,06,52,13.30
2014,09,12,06,53,13.30
2014,09,12,06,54,13.30
2014,09,12,06,55,13.20
2014,09,12,06,56,13.20
2014,09,12,06,57,13.20
2014,09,12,06,58,13.20
2014,09,12,06,59,13.20
2014,09,12,07,00,13.10
2014,09,12,07,01,13.10
2014,09,12,07,02,13.10
2014,09,12,07,03,13.00
2014,09,12,07,04,13.00
2014,09,12,07,05,12.90
2014,09,12,07,06,12.90
2014,09,12,07,07,12.80
2014,09,12,07,08,12.80
2014,09,12,07,09,12.70
2014,09,12,07,10,12.60
2014,09,12,07,11,12.60
2014,09,12,07,12,12.60
2014,09,12,07,13,12.50
2014,09,12,07,14,12.50
2014,09,12,07,15,12.40
2014,09,12,07,16,12.40
2014,09,12,07,17,12.40
2014,09,12,07,18,12.40
2014,09,12,07,19,12.30
2014,09,12,07,20,12.30
2014,09,12,07,21,12.30
2014,09,12,07,22,12.30
2014,09,12,07,23,12.30
2014,09,12,07,24,12.30
2014,09,12,07,25,12.30
2014,09,12,07,26,12.30
2014,09,12,07,27,12.30
2014,09,12,07,28,12.30
2014,09,12,07,29,12.30
2014,09,12,07,30,12.30
2014,09,12,07,31,12.30
2014,09,12,07,32,12.30
2014,09,12,07,33,12.30
2014,09,12,07,34,12.30
2014,09,12,07,35,12.40
2014,09,12,07,36,12.40
2014,09,12,07,37,12.40
2014,09,12,07,38,12.40
2014,09,12,07,39,12.50
2014,09,12,07,40,12.50
2014,09,12,07,41,12.60
2014,09,12,07,42,12.60
2014,09,12,07,43,12.70
2014,09,12,07,44,12.80
2014,09,12,07,45,12.80
2014,09,12,07,46,12.90
2014,09,12,07,47,13.00
2014,09,12,07,48,13.10
2014,09,12,07,49,13.10
2014,09,12,07,50,13.20
2014,09,12,07,51,13.30
2014,09,12,07,52,13.30
2014,09,12,07,53,13.40
2014,09,12,07,54,13.50
2014,09,12,07,55,13.50
2014,09,12,07,56,13.60
2014,09,12,07,57,13.60
2014,09,12,07,58,13.70
2014,09,12,07,59,13.80
2014,09,12,08,00,13.80
2014,09,12,08,01,13.90
2014,09,12,08,02,13.90
2014,09,12,08,03,14.00
2014,09,12,08,04,14.10
2014,09,12,08,05,14.10
2014,09,12,08,06,14.20
2014,09,12,08,07,14.30
2014,09,12,08,08,14.30
2014,09,12,08,09,14.40
2014,09,12,08,10,14.50
2014,09,12,08,11,14.60
2014,09,12,08,12,14.70
2014,09,12,08,13,14.70
2014,09,12,08,14,14.80
2014,09,12,08,15,14.90
2014,09,12,08,16,15.00
2014,09,12,08,17,15.00
2014,09,12,08,18,15.00
2014,09,12,08,19,15.00
2014,09,12,08,20,15.00
2014,09,12,08,21,15.00
2014,09,12,08,22,15.10
2014,09,12,08,23,15.20
2014,09,12,08,24,15.20
2014,09,12,08,25,15.30
2014,09,12,08,26,15.30
2014,09,12,08,27,15.30
2014,09,12,08,28,15.40
2014,09,12,08,29,15.40
2014,09,12,08,30,15.40
2014,09,12,08,31,15.50
2014,09,12,08,32,15.50
2014,09,12,08,33,15.60
2014,09,12,08,34,15.60
2014,09,12,08,35,15.60
2014,09,12,08,36,15.60
2014,09,12,08,37,15.70
2014,09,12,08,38,15.70
2014,09,12,08,39,15.70
2014,09,12,08,40,15.70
2014,09,12,08,41,15.70
2014,09,12,08,42,15.70
2014,09,12,08,43,15.70
2014,09,12,08,44,15.70
2014,09,12,08,45,15.70
2014,09,12,08,46,15.70
2014,09,12,08,47,15.70
2014,09,12,08,48,15.70
2014,09,12,08,49,15.70
2014,09,12,08,50,15.60
2014,09,12,08,51,15.60
2014,09,12,08,52,15.60
2014,09,12,08,53,15.60
2014,09,12,08,54,15.60
2014,09,12,08,55,15.70
2014,09,12,08,56,15.70
2014,09,12,08,57,15.70
2014,09,12,08,58,15.70
2014,09,12,08,59,15.80
2014,09,12,09,00,15.80
2014,09,12,09,01,15.90
2014,09,12,09,02,15.90
2014,09,12,09,03,16.00
2014,09,12,09,04,16.00
2014,09,12,09,05,16.10
2014,09,12,09,06,16.10
2014,09,12,09,07,16.10
2014,09,12,09,08,16.10
2014,09,12,09,09,16.20
2014,09,12,09,10,16.20
2014,09,12,09,11,16.20
2014,09,12,09,12,16.30
2014,09,12,09,13,16.30
2014,09,12,09,14,16.30
2014,09,12,09,15,16.30
2014,09,12,09,16,16.40
2014,09,12,09,17,16.40
2014,09,12,09,18,16.40
2014,09,12,09,19,16.40
2014,09,12,09,20,16.50
2014,09,12,09,21,16.50
2014,09,12,09,22,16.60
2014,09,12,09,23,16.60
2014,09,12,09,24,16.60
2014,09,12,09,25,16.60
2014,09,12,09,26,16.70
2014,09,12,09,27,16.80
2014,09,12,09,28,16.80
2014,09,12,09,29,16.90
2014,09,12,09,30,16.90
2014,09,12,09,31,17.00
2014,09,12,09,32,17.00
2014,09,12,09,33,17.10
2014,09,12,09,34,17.10
2014,09,12,09,35,17.10
2014,09,12,09,36,17.10
2014,09,12,09,37,17.10
2014,09,12,09,38,17.00
2014,09,12,09,39,17.00
2014,09,12,09,40,17.10
2014,09,12,09,41,17.10
2014,09,12,09,42,17.10
2014,09,12,09,43,17.10
2014,09,12,09,44,17.10
2014,09,12,09,45,17.10
2014,09,12,09,46,17.10
2014,09,12,09,47,17.20
2014,09,12,09,48,17.20
2014,09,12,09,49,17.20
2014,09,12,09,50,17.30
2014,09,12,09,51,17.30
2014,09,12,09,52,17.40
2014,09,12,09,53,17.40
2014,09,12,09,54,17.50
2014,09,12,09,55,17.60
2014,09,12,09,56,17.60
2014,09,12,09,57,17.60
2014,09,12,09,58,17.60
2014,09,12,09,59,17.60
2014,09,12,10,00,17.60
2014,09,12,10,01,17.70
2014,09,12,10,02,17.70
2014,09,12,10,03,17.70
2014,09,12,10,04,17.70
2014,09,12,10,05,17.70
2014,09,12,10,06,17.70
2014,09,12,10,07,17.60
2014,09,12,10,08,17.60
2014,09,12,10,09,17.60
2014,09,12,10,10,17.70
2014,09,12,10,11,17.70
2014,09,12,10,12,17.70
2014,09,12,10,13,17.70
2014,09,12,10,14,17.70
2014,09,12,10,15,17.80
2014,09,12,10,16,17.80
2014,09,12,10,17,17.80
2014,09,12,10,18,17.80
2014,09,12,10,19,17.80
2014,09,12,10,20,17.90
2014,09,12,10,21,17.90
2014,09,12,10,22,17.90
2014,09,12,10,23,18.00
2014,09,12,10,24,18.10
2014,09,12,10,25,18.10
2014,09,12,10,26,18.10
2014,09,12,10,27,18.20
2014,09,12,10,28,18.20
2014,09,12,10,29,18.20
2014,09,12,10,30,18.20
2014,09,12,10,31,18.20
2014,09,12,10,32,18.20
2014,09,12,10,33,18.30
2014,09,12,10,34,18.30
2014,09,12,10,35,18.30
2014,09,12,10,36,18.40
2014,09,12,10,37,18.40
2014,09,12,10,38,18.40
2014,09,12,10,39,18.40
2014,09,12,10,40,18.50
2014,09,12,10,41,18.50
2014,09,12,10,42,18.50
2014,09,12,10,43,18.50
2014,09,12,10,44,18.50
2014,09,12,10,45,18.40
2014,09,12,10,46,18.40
2014,09,12,10,47,18.40
2014,09,12,10,48,18.40
2014,09,12,10,49,18.40
2014,09,12,10,50,18.50
2014,09,12,10,51,18.50
2014,09,12,10,52,18.50
2014,09,12,10,53,18.50
2014,09,12,10,54,18.50
2014,09,12,10,55,18.40
2014,09,12,10,56,18.40
2014,09,12,10,57,18.40
2014,09,12,10,58,18.50
2014,09,12,10,59,18.50
2014,09,12,11,00,18.50
2014,09,12,11,01,18.50
2014,09,12,11,02,18.50
2014,09,12,11,03,18.50
2014,09,12,11,04,18.50
2014,09,12,11,05,18.50
2014,09,12,11,06,18.40
2014,09,12,11,07,18.40
2014,09,12,11,08,18.40
2014,09,12,11,09,18.30
2014,09,12,11,10,18.30
2014,09,12,11,11,18.20
2014,09,12,11,12,18.20
2014,09,12,11,13,18.20
2014,09,12,11,14,18.20
2014,09,12,11,15,18.30
2014,09,12,11,16,18.30
2014,09,12,11,17,18.40
2014,09,12,11,18,18.40
2014,09,12,11,19,18.50
2014,09,12,11,20,18.60
2014,09,12,11,21,18.60
2014,09,12,11,22,18.70
2014,09,12,11,23,18.70
2014,09,12,11,24,18.80
2014,09,12,11,25,18.80
2014,09,12,11,26,18.70
2014,09,12,11,27,18.70
2014,09,12,11,28,18.70
2014,09,12,11,29,18.70
2014,09,12,11,30,18.80
2014,09,12,11,31,18.80
2014,09,12,11,32,18.90
2014,09,12,11,33,18.90
2014,09,12,11,34,18.90
2014,09,12,11,35,18.90
2014,09,12,11,36,19.00
2014,09,12,11,37,19.00
2014,09,12,11,38,19.10
2014,09,12,11,39,19.10
2014,09,12,11,40,19.10
2014,09,12,11,41,19.10
2014,09,12,11,42,19.20
2014,09,12,11,43,19.30
2014,09,12,11,44,19.40
2014,09,12,11,45,19.50
2014,09,12,11,46,19.50
2014,09,12,11,47,19.50
2014,09,12,11,48,19.60
2014,09,12,11,49,19.70
2014,09,12,11,50,19.70
2014,09,12,11,51,19.80
2014,09,12,11,52,19.90
2014,09,12,11,53,19.90
2014,09,12,11,54,19.90
2014,09,12,11,55,19.90
2014,09,12,11,56,19.90
2014,09,12,11,57,19.90
2014,09,12,11,58,19.90
2014,09,12,11,59,19.90
2014,09,12,12,00,19.90
2014,09,12,12,01,20.00
2014,09,12,12,02,20.10
2014,09,12,12,03,20.10
2014,09,12,12,04,20.10
2014,09,12,12,05,20.10
2014,09,12,12,06,20.10
2014,09,12,12,07,20.10
2014,09,12,12,08,20.20
2014,09,12,12,09,20.20
2014,09,12,12,10,20.20
2014,09,12,12,11,20.20
2014,09,12,12,12,20.10
2014,09,12,12,13,20.10
2014,09,12,12,14,20.10
2014,09,12,12,15,20.10
2014,09,12,12,16,20.00
2014,09,12,12,17,20.00
2014,09,12,12,18,20.00
2014,09,12,12,19,20.00
2014,09,12,12,20,20.00
2014,09,12,12,21,20.10
2014,09,12,12,22,20.00
2014,09,12,12,23,20.00
2014,09,12,12,24,20.00
2014,09,12,12,25,20.00
2014,09,12,12,26,20.00
2014,09,12,12,27,19.90
2014,09,12,12,28,19.90
2014,09,12,12,29,19.90
2014,09,12,12,30,19.90
2014,09,12,12,31,19.90
2014,09,12,12,32,19.90
2014,09,12,12,33,19.80
2014,09,12,12,34,19.90
2014,09,12,12,35,19.80
2014,09,12,12,36,19.80
2014,09,12,12,37,19.80
2014,09,12,12,38,19.90
2014,09,12,12,39,19.90
2014,09,12,12,40,19.90
2014,09,12,12,41,19.90
2014,09,12,12,42,19.80
2014,09,12,12,43,19.80
2014,09,12,12,44,19.80
2014,09,12,12,45,19.90
2014,09,12,12,46,20.00
2014,09,12,12,47,19.90
2014,09,12,12,48,19.90
2014,09,12,12,49,19.80
2014,09,12,12,50,19.80
2014,09,12,12,51,19.80
2014,09,12,12,52,19.80
2014,09,12,12,53,19.80
2014,09,12,12,54,19.80
2014,09,12,12,55,19.80
2014,09,12,12,56,19.80
2014,09,12,12,57,19.70
2014,09,12,12,58,19.70
2014,09,12,12,59,19.60
2014,09,12,13,00,19.50
2014,09,12,13,01,19.50
2014,09,12,13,02,19.50
2014,09,12,13,03,19.50
2014,09,12,13,04,19.50
2014,09,12,13,05,19.50
2014,09,12,13,06,19.40
2014,09,12,13,07,19.40
2014,09,12,13,08,19.30
2014,09,12,13,09,19.20
2014,09,12,13,10,19.20
2014,09,12,13,11,19.30
2014,09,12,13,12,19.40
2014,09,12,13,13,19.40
2014,09,12,13,14,19.50
2014,09,12,13,15,19.50
2014,09,12,13,16,19.50
2014,09,12,13,17,19.50
2014,09,12,13,18,19.40
2014,09,12,13,19,19.40
2014,09,12,13,20,19.40
2014,09,12,13,21,19.40
2014,09,12,13,22,19.40
2014,09,12,13,23,19.40
2014,09,12,13,24,19.40
2014,09,12,13,25,19.50
2014,09,12,13,26,19.40
2014,09,12,13,27,19.40
2014,09,12,13,28,19.50
2014,09,12,13,29,19.50
2014,09,12,13,30,19.50
2014,09,12,13,31,19.50
2014,09,12,13,32,19.60
2014,09,12,13,33,19.70
2014,09,12,13,34,19.70
2014,09,12,13,35,19.80
2014,09,12,13,36,19.80
2014,09,12,13,37,19.80
2014,09,12,13,38,19.80
2014,09,12,13,39,19.80
2014,09,12,13,40,19.80
2014,09,12,13,41,19.80
2014,09,12,13,42,19.80
2014,09,12,13,43,19.80
2014,09,12,13,44,19.90
2014,09,12,13,45,20.00
2014,09,12,13,46,20.10
2014,09,12,13,47,20.20
2014,09,12,13,48,20.20
2014,09,12,13,49,20.20
2014,09,12,13,50,20.20
2014,09,12,13,51,20.20
2014,09,12,13,52,20.30
2014,09,12,13,53,20.30
2014,09,12,13,54,20.20
2014,09,12,13,55,20.20
2014,09,12,13,56,20.20
2014,09,12,13,57,20.30
2014,09,12,13,58,20.40
2014,09,12,13,59,20.50
2014,09,12,14,00,20.60
2014,09,12,14,01,20.70
2014,09,12,14,02,20.70
2014,09,12,14,03,20.80
2014,09,12,14,04,20.80
2014,09,12,14,05,20.80
2014,09,12,14,06,20.80
2014,09,12,14,07,20.90
2014,09,12,14,08,20.90
2014,09,12,14,09,20.90
2014,09,12,14,10,21.00
2014,09,12,14,11,21.00
2014,09,12,14,12,21.00
2014,09,12,14,13,21.10
2014,09,12,14,14,21.10
2014,09,12,14,15,21.20
2014,09,12,14,16,21.20
2014,09,12,14,17,21.30
2014,09,12,14,18,21.30
2014,09,12,14,19,21.30
2014,09,12,14,20,21.30
2014,09,12,14,21,21.30
2014,09,12,14,22,21.30
2014,09,12,14,23,21.30
2014,09,12,14,24,21.40
2014,09,12,14,25,21.40
2014,09,12,14,26,21.30
2014,09,12,14,27,21.30
2014,09,12,14,28,21.30
2014,09,12,14,29,21.40
2014,09,12,14,30,21.50
2014,09,12,14,31,21.50
2014,09,12,14,32,21.60
2014,09,12,14,33,21.60
2014,09,12,14,34,21.70
2014,09,12,14,35,21.70
2014,09,12,14,36,21.80
2014,09,12,14,37,21.70
2014,09,12,14,38,21.70
2014,09,12,14,39,21.70
2014,09,12,14,40,21.60
2014,09,12,14,41,21.60
2014,09,12,14,42,21.60
2014,09,12,14,43,21.60
2014,09,12,14,44,21.70
2014,09,12,14,45,21.80
2014,09,12,14,46,21.80
2014,09,12,14,47,21.90
2014,09,12,14,48,21.90
2014,09,12,14,49,21.90
2014,09,12,14,50,21.80
2014,09,12,14,51,21.80
2014,09,12,14,52,21.80
2014,09,12,14,53,21.90
2014,09,12,14,54,22.00
2014,09,12,14,55,22.00
2014,09,12,14,56,22.00
2014,09,12,14,57,22.00
2014,09,12,14,58,22.00
2014,09,12,14,59,22.00
2014,09,12,15,00,21.90
2014,09,12,15,01,21.80
2014,09,12,15,02,21.80
2014,09,12,15,03,21.80
2014,09,12,15,04,21.80
2014,09,12,15,05,21.80
2014,09,12,15,06,21.80
2014,09,12,15,07,21.90
2014,09,12,15,08,21.90
2014,09,12,15,09,21.90
2014,09,12,15,10,22.00
2014,09,12,15,11,22.00
2014,09,12,15,12,22.10
2014,09,12,15,13,22.10
2014,09,12,15,14,22.00
2014,09,12,15,15,22.00
2014,09,12,15,16,22.00
2014,09,12,15,17,22.00
2014,09,12,15,18,22.00
2014,09,12,15,19,22.10
2014,09,12,15,20,22.10
2014,09,12,15,21,22.00
2014,09,12,15,22,22.00
2014,09,12,15,23,22.00
2014,09,12,15,24,22.00
2014,09,12,15,25,22.00
2014,09,12,15,26,22.10
2014,09,12,15,27,22.00
2014,09,12,15,28,22.00
2014,09,12,15,29,22.00
2014,09,12,15,30,22.00
2014,09,12,15,31,22.10
2014,09,12,15,32,22.10
2014,09,12,15,33,22.10
2014,09,12,15,34,22.10
2014,09,12,15,35,22.10
2014,09,12,15,36,22.00
2014,09,12,15,37,22.00
2014,09,12,15,38,22.10
2014,09,12,15,39,22.20
2014,09,12,15,40,22.30
2014,09,12,15,41,22.30
2014,09,12,15,42,22.40
2014,09,12,15,43,22.50
2014,09,12,15,44,22.60
2014,09,12,15,45,22.60
2014,09,12,15,46,22.60
2014,09,12,15,47,22.60
2014,09,12,15,48,22.60
2014,09,12,15,49,22.70
2014,09,12,15,50,22.70
2014,09,12,15,51,22.70
2014,09,12,15,52,22.60
2014,09,12,15,53,22.60
2014,09,12,15,54,22.60
2014,09,12,15,55,22.50
2014,09,12,15,56,22.50
2014,09,12,15,57,22.60
2014,09,12,15,58,22.60
2014,09,12,15,59,22.70
2014,09,12,16,00,22.60
2014,09,12,16,01,22.60
2014,09,12,16,02,22.50
2014,09,12,16,03,22.50
2014,09,12,16,04,22.50
2014,09,12,16,05,22.60
2014,09,12,16,06,22.60
2014,09,12,16,07,22.70
2014,09,12,16,08,22.70
2014,09,12,16,09,22.70
2014,09,12,16,10,22.70
2014,09,12,16,11,22.70
2014,09,12,16,12,22.80
2014,09,12,16,13,22.80
2014,09,12,16,14,22.80
2014,09,12,16,15,22.80
2014,09,12,16,16,22.80
2014,09,12,16,17,22.80
2014,09,12,16,18,22.80
2014,09,12,16,19,22.80
2014,09,12,16,20,22.80
2014,09,12,16,21,22.80
2014,09,12,16,22,22.80
2014,09,12,16,23,22.80
2014,09,12,16,24,22.80
2014,09,12,16,25,22.80
2014,09,12,16,26,22.80
2014,09,12,16,27,22.80
2014,09,12,16,28,22.80
2014,09,12,16,29,22.80
2014,09,12,16,30,22.90
2014,09,12,16,31,22.90
2014,09,12,16,32,23.00
2014,09,12,16,33,23.00
2014,09,12,16,34,23.00
2014,09,12,16,35,23.00
2014,09,12,16,36,22.90
2014,09,12,16,37,23.00
2014,09,12,16,38,23.00
2014,09,12,16,39,23.10
2014,09,12,16,40,23.10
2014,09,12,16,41,23.10
2014,09,12,16,42,23.00
2014,09,12,16,43,23.00
2014,09,12,16,44,23.00
2014,09,12,16,45,23.00
2014,09,12,16,46,23.00
2014,09,12,16,47,23.00
2014,09,12,16,48,23.00
2014,09,12,16,49,23.10
2014,09,12,16,50,23.10
2014,09,12,16,51,23.00
2014,09,12,16,52,23.00
2014,09,12,16,53,22.90
2014,09,12,16,54,23.00
2014,09,12,16,55,23.10
2014,09,12,16,56,23.10
2014,09,12,16,57,23.10
2014,09,12,16,58,23.10
2014,09,12,16,59,23.10
2014,09,12,17,00,23.20
2014,09,12,17,01,23.20
2014,09,12,17,02,23.20
2014,09,12,17,03,23.10
2014,09,12,17,04,23.10
2014,09,12,17,05,23.10
2014,09,12,17,06,23.10
2014,09,12,17,07,23.10
2014,09,12,17,08,23.10
2014,09,12,17,09,23.10
2014,09,12,17,10,23.10
2014,09,12,17,11,23.10
2014,09,12,17,12,23.10
2014,09,12,17,13,23.10
2014,09,12,17,14,23.10
2014,09,12,17,15,23.10
2014,09,12,17,16,23.20
2014,09,12,17,17,23.20
2014,09,12,17,18,23.20
2014,09,12,17,19,23.30
2014,09,12,17,20,23.30
2014,09,12,17,21,23.30
2014,09,12,17,22,23.30
2014,09,12,17,23,23.30
2014,09,12,17,24,23.30
2014,09,12,17,25,23.20